owner,sensor,date,latitude,longitude,vertical_datum,sea_water_practical_salinity,qcFlag 
SCCF RECON,ioos:station:SCCF:53:1,2012-01-01T00:00:00Z,26.6493,-81.8810,2.326,16.19,1111122 
SCCF RECON,ioos:station:SCCF:53:1,2012-01-01T01:00:00Z,26.6493,-81.8810,2.37,16.3,1111122 
SCCF RECON,ioos:station:SCCF:53:1,2012-01-01T02:00:00Z,26.6493,-81.8810,2.39,15.91,1111122 
SCCF RECON,ioos:station:SCCF:53:1,2012-01-01T03:00:00Z,26.6493,-81.8810,2.37,15.66,1111122 
SCCF RECON,ioos:station:SCCF:53:1,2012-01-01T04:00:00Z,26.6493,-81.8810,2.329,15.48,1111122 
SCCF RECON,ioos:station:SCCF:53:1,2012-01-01T05:00:00Z,26.6493,-81.8810,2.284,15.35,1111122 
SCCF RECON,ioos:station:SCCF:53:1,2012-01-01T06:00:00Z,26.6493,-81.8810,2.236,15.49,1111122 
SCCF RECON,ioos:station:SCCF:53:1,2012-01-01T07:00:00Z,26.6493,-81.8810,2.2,15.85,1111122 
SCCF RECON,ioos:station:SCCF:53:1,2012-01-01T08:00:00Z,26.6493,-81.8810,2.16,16.0,1111122 
SCCF RECON,ioos:station:SCCF:53:1,2012-01-01T09:00:00Z,26.6493,-81.8810,2.13,16.08,1111122 
SCCF RECON,ioos:station:SCCF:53:1,2012-01-01T10:00:00Z,26.6493,-81.8810,2.14,16.14,1111122 
SCCF RECON,ioos:station:SCCF:53:1,2012-01-01T11:00:00Z,26.6493,-81.8810,2.18,16.11,1111122 
SCCF RECON,ioos:station:SCCF:53:1,2012-01-01T12:00:00Z,26.6493,-81.8810,2.22,15.89,1111122 
SCCF RECON,ioos:station:SCCF:53:1,2012-01-01T13:00:00Z,26.6493,-81.8810,2.25,16.45,1111122 
SCCF RECON,ioos:station:SCCF:53:1,2012-01-01T14:00:00Z,26.6493,-81.8810,2.277,16.2,1111122 
SCCF RECON,ioos:station:SCCF:53:1,2012-01-01T15:00:00Z,26.6493,-81.8810,2.268,16.27,1111122 
SCCF RECON,ioos:station:SCCF:53:1,2012-01-01T16:00:00Z,26.6493,-81.8810,2.23,16.26,1111122 
SCCF RECON,ioos:station:SCCF:53:1,2012-01-01T17:00:00Z,26.6493,-81.8810,2.191,16.39,1111122 
SCCF RECON,ioos:station:SCCF:53:1,2012-01-01T18:00:00Z,26.6493,-81.8810,2.158,16.13,1111122 
SCCF RECON,ioos:station:SCCF:53:1,2012-01-01T19:00:00Z,26.6493,-81.8810,2.131,16.19,1111122 
SCCF RECON,ioos:station:SCCF:53:1,2012-01-01T20:00:00Z,26.6493,-81.8810,2.121,16.02,1111122 
SCCF RECON,ioos:station:SCCF:53:1,2012-01-01T21:00:00Z,26.6493,-81.8810,2.138,16.32,1111122 
SCCF RECON,ioos:station:SCCF:53:1,2012-01-01T22:00:00Z,26.6493,-81.8810,2.187,16.64,1111122 
SCCF RECON,ioos:station:SCCF:53:1,2012-01-01T23:00:00Z,26.6493,-81.8810,2.234,16.99,1111122 
SCCF RECON,ioos:station:SCCF:53:1,2012-01-02T00:00:00Z,26.6493,-81.8810,2.281,16.49,1111122 
SCCF RECON,ioos:station:SCCF:53:1,2012-01-02T01:00:00Z,26.6493,-81.8810,2.33,16.38,1111122 
SCCF RECON,ioos:station:SCCF:53:1,2012-01-02T02:00:00Z,26.6493,-81.8810,2.36,16.95,1111122 
SCCF RECON,ioos:station:SCCF:53:1,2012-01-02T03:00:00Z,26.6493,-81.8810,2.36,16.65,1111122 
SCCF RECON,ioos:station:SCCF:53:1,2012-01-02T04:00:00Z,26.6493,-81.8810,2.33,16.01,1111122 
SCCF RECON,ioos:station:SCCF:53:1,2012-01-02T05:00:00Z,26.6493,-81.8810,2.27,14.85,1111122 
SCCF RECON,ioos:station:SCCF:53:1,2012-01-02T06:00:00Z,26.6493,-81.8810,2.22,16.16,1111122 
SCCF RECON,ioos:station:SCCF:53:1,2012-01-02T07:00:00Z,26.6493,-81.8810,2.17,16.21,1111122 
SCCF RECON,ioos:station:SCCF:53:1,2012-01-02T08:00:00Z,26.6493,-81.8810,2.125,15.88,1111122 
SCCF RECON,ioos:station:SCCF:53:1,2012-01-02T09:00:00Z,26.6493,-81.8810,2.087,15.05,1111122 
SCCF RECON,ioos:station:SCCF:53:1,2012-01-02T10:00:00Z,26.6493,-81.8810,2.05,15.12,1111122 
SCCF RECON,ioos:station:SCCF:53:1,2012-01-02T11:00:00Z,26.6493,-81.8810,2.04,16.13,1111122 
SCCF RECON,ioos:station:SCCF:53:1,2012-01-02T12:00:00Z,26.6493,-81.8810,2.073,15.83,1111122 
SCCF RECON,ioos:station:SCCF:53:1,2012-01-02T13:00:00Z,26.6493,-81.8810,2.11,16.0,1111122 
SCCF RECON,ioos:station:SCCF:53:1,2012-01-02T14:00:00Z,26.6493,-81.8810,2.14,16.39,1111122 
SCCF RECON,ioos:station:SCCF:53:1,2012-01-02T15:00:00Z,26.6493,-81.8810,2.17,17.06,1111122 
SCCF RECON,ioos:station:SCCF:53:1,2012-01-02T16:00:00Z,26.6493,-81.8810,2.187,16.69,1111122 
SCCF RECON,ioos:station:SCCF:53:1,2012-01-02T17:00:00Z,26.6493,-81.8810,2.189,15.15,1111122 
SCCF RECON,ioos:station:SCCF:53:1,2012-01-02T18:00:00Z,26.6493,-81.8810,2.192,15.76,1111122 
SCCF RECON,ioos:station:SCCF:53:1,2012-01-02T19:00:00Z,26.6493,-81.8810,2.159,16.15,1111122 
SCCF RECON,ioos:station:SCCF:53:1,2012-01-02T20:00:00Z,26.6493,-81.8810,2.15,15.74,1111122 
SCCF RECON,ioos:station:SCCF:53:1,2012-01-02T21:00:00Z,26.6493,-81.8810,1.0,-9999.0,1111122 
SCCF RECON,ioos:station:SCCF:53:1,2012-01-02T22:00:00Z,26.6493,-81.8810,2.159,14.75,1111122 
SCCF RECON,ioos:station:SCCF:53:1,2012-01-02T23:00:00Z,26.6493,-81.8810,2.152,13.09,1111122 
SCCF RECON,ioos:station:SCCF:53:1,2012-01-03T00:00:00Z,26.6493,-81.8810,1.0,-9999.0,1111122 
SCCF RECON,ioos:station:SCCF:53:1,2012-01-03T01:00:00Z,26.6493,-81.8810,2.192,13.69,1111122 
SCCF RECON,ioos:station:SCCF:53:1,2012-01-03T02:00:00Z,26.6493,-81.8810,1.0,-9999.0,1111122 
SCCF RECON,ioos:station:SCCF:53:1,2012-01-03T03:00:00Z,26.6493,-81.8810,2.19,12.89,1111122 
SCCF RECON,ioos:station:SCCF:53:1,2012-01-03T04:00:00Z,26.6493,-81.8810,1.0,-9999.0,1111122 
SCCF RECON,ioos:station:SCCF:53:1,2012-01-03T05:00:00Z,26.6493,-81.8810,2.134,12.91,1111122 
SCCF RECON,ioos:station:SCCF:53:1,2012-01-03T06:00:00Z,26.6493,-81.8810,1.0,-9999.0,1111122 
SCCF RECON,ioos:station:SCCF:53:1,2012-01-03T07:00:00Z,26.6493,-81.8810,1.0,-9999.0,1111122 
SCCF RECON,ioos:station:SCCF:53:1,2012-01-03T08:00:00Z,26.6493,-81.8810,2.03,17.13,1111122 
SCCF RECON,ioos:station:SCCF:53:1,2012-01-03T09:00:00Z,26.6493,-81.8810,1.0,-9999.0,1111122 
SCCF RECON,ioos:station:SCCF:53:1,2012-01-03T10:00:00Z,26.6493,-81.8810,1.96,16.84,1111122 
SCCF RECON,ioos:station:SCCF:53:1,2012-01-03T11:00:00Z,26.6493,-81.8810,1.0,-9999.0,1111122 
SCCF RECON,ioos:station:SCCF:53:1,2012-01-03T12:00:00Z,26.6493,-81.8810,1.911,12.29,1111122 
SCCF RECON,ioos:station:SCCF:53:1,2012-01-03T13:00:00Z,26.6493,-81.8810,1.0,-9999.0,1111122 
SCCF RECON,ioos:station:SCCF:53:1,2012-01-03T14:00:00Z,26.6493,-81.8810,1.0,-9999.0,1111122 
SCCF RECON,ioos:station:SCCF:53:1,2012-01-03T15:00:00Z,26.6493,-81.8810,1.0,-9999.0,1111122 
SCCF RECON,ioos:station:SCCF:53:1,2012-01-03T16:00:00Z,26.6493,-81.8810,1.0,-9999.0,1111122 
SCCF RECON,ioos:station:SCCF:53:1,2012-01-03T17:00:00Z,26.6493,-81.8810,1.0,-9999.0,1111122 
SCCF RECON,ioos:station:SCCF:53:1,2012-01-03T18:00:00Z,26.6493,-81.8810,1.0,-9999.0,1111122 
SCCF RECON,ioos:station:SCCF:53:1,2012-01-03T19:00:00Z,26.6493,-81.8810,1.0,-9999.0,1111122 
SCCF RECON,ioos:station:SCCF:53:1,2012-01-03T20:00:00Z,26.6493,-81.8810,1.0,-9999.0,1111122 
SCCF RECON,ioos:station:SCCF:53:1,2012-01-03T21:00:00Z,26.6493,-81.8810,1.0,-9999.0,1111122 
SCCF RECON,ioos:station:SCCF:53:1,2012-01-03T22:00:00Z,26.6493,-81.8810,1.0,-9999.0,1111122 
SCCF RECON,ioos:station:SCCF:53:1,2012-01-03T23:00:00Z,26.6493,-81.8810,1.0,-9999.0,1111122 
SCCF RECON,ioos:station:SCCF:53:1,2012-01-04T00:00:00Z,26.6493,-81.8810,1.0,-9999.0,1111122 
SCCF RECON,ioos:station:SCCF:53:1,2012-01-04T01:00:00Z,26.6493,-81.8810,1.0,-9999.0,1111122 
SCCF RECON,ioos:station:SCCF:53:1,2012-01-04T02:00:00Z,26.6493,-81.8810,1.0,-9999.0,1111122 
SCCF RECON,ioos:station:SCCF:53:1,2012-01-04T03:00:00Z,26.6493,-81.8810,1.0,-9999.0,1111122 
SCCF RECON,ioos:station:SCCF:53:1,2012-01-04T04:00:00Z,26.6493,-81.8810,1.0,-9999.0,1111122 
SCCF RECON,ioos:station:SCCF:53:1,2012-01-04T05:00:00Z,26.6493,-81.8810,1.0,-9999.0,1111122 
SCCF RECON,ioos:station:SCCF:53:1,2012-01-04T06:00:00Z,26.6493,-81.8810,1.0,-9999.0,1111122 
SCCF RECON,ioos:station:SCCF:53:1,2012-01-04T07:00:00Z,26.6493,-81.8810,1.0,-9999.0,1111122 
SCCF RECON,ioos:station:SCCF:53:1,2012-01-04T08:00:00Z,26.6493,-81.8810,1.0,-9999.0,1111122 
SCCF RECON,ioos:station:SCCF:53:1,2012-01-04T09:00:00Z,26.6493,-81.8810,1.0,-9999.0,1111122 
SCCF RECON,ioos:station:SCCF:53:1,2012-01-04T10:00:00Z,26.6493,-81.8810,1.0,-9999.0,1111122 
SCCF RECON,ioos:station:SCCF:53:1,2012-01-04T11:00:00Z,26.6493,-81.8810,1.0,-9999.0,1111122 
SCCF RECON,ioos:station:SCCF:53:1,2012-01-04T12:00:00Z,26.6493,-81.8810,1.0,-9999.0,1111122 
SCCF RECON,ioos:station:SCCF:53:1,2012-01-04T13:00:00Z,26.6493,-81.8810,1.0,-9999.0,1111122 
SCCF RECON,ioos:station:SCCF:53:1,2012-01-04T14:00:00Z,26.6493,-81.8810,1.0,-9999.0,1111122 
SCCF RECON,ioos:station:SCCF:53:1,2012-01-04T15:00:00Z,26.6493,-81.8810,1.0,-9999.0,1111122 
SCCF RECON,ioos:station:SCCF:53:1,2012-01-04T16:00:00Z,26.6493,-81.8810,1.0,-9999.0,1111122 
SCCF RECON,ioos:station:SCCF:53:1,2012-01-04T17:00:00Z,26.6493,-81.8810,1.0,-9999.0,1111122 
SCCF RECON,ioos:station:SCCF:53:1,2012-01-04T18:00:00Z,26.6493,-81.8810,1.0,-9999.0,1111122 
SCCF RECON,ioos:station:SCCF:53:1,2012-01-04T19:00:00Z,26.6493,-81.8810,1.0,-9999.0,1111122 
SCCF RECON,ioos:station:SCCF:53:1,2012-01-04T20:00:00Z,26.6493,-81.8810,1.0,-9999.0,1111122 
SCCF RECON,ioos:station:SCCF:53:1,2012-01-04T21:00:00Z,26.6493,-81.8810,1.0,-9999.0,1111122 
SCCF RECON,ioos:station:SCCF:53:1,2012-01-04T22:00:00Z,26.6493,-81.8810,1.0,-9999.0,1111122 
SCCF RECON,ioos:station:SCCF:53:1,2012-01-04T23:00:00Z,26.6493,-81.8810,1.0,-9999.0,1111122 
SCCF RECON,ioos:station:SCCF:53:1,2012-01-05T00:00:00Z,26.6493,-81.8810,1.0,-9999.0,1111122 
SCCF RECON,ioos:station:SCCF:53:1,2012-01-05T01:00:00Z,26.6493,-81.8810,1.0,-9999.0,1111122 
SCCF RECON,ioos:station:SCCF:53:1,2012-01-05T02:00:00Z,26.6493,-81.8810,1.0,-9999.0,1111122 
SCCF RECON,ioos:station:SCCF:53:1,2012-01-05T03:00:00Z,26.6493,-81.8810,1.0,-9999.0,1111122 
SCCF RECON,ioos:station:SCCF:53:1,2012-01-05T04:00:00Z,26.6493,-81.8810,1.0,-9999.0,1111122 
SCCF RECON,ioos:station:SCCF:53:1,2012-01-05T05:00:00Z,26.6493,-81.8810,1.0,-9999.0,1111122 
SCCF RECON,ioos:station:SCCF:53:1,2012-01-05T06:00:00Z,26.6493,-81.8810,1.0,-9999.0,1111122 
SCCF RECON,ioos:station:SCCF:53:1,2012-01-05T07:00:00Z,26.6493,-81.8810,1.0,-9999.0,1111122 
SCCF RECON,ioos:station:SCCF:53:1,2012-01-05T08:00:00Z,26.6493,-81.8810,1.0,-9999.0,1111122 
SCCF RECON,ioos:station:SCCF:53:1,2012-01-05T09:00:00Z,26.6493,-81.8810,1.0,-9999.0,1111122 
SCCF RECON,ioos:station:SCCF:53:1,2012-01-05T10:00:00Z,26.6493,-81.8810,1.0,-9999.0,1111122 
SCCF RECON,ioos:station:SCCF:53:1,2012-01-05T11:00:00Z,26.6493,-81.8810,1.0,-9999.0,1111122 
SCCF RECON,ioos:station:SCCF:53:1,2012-01-05T12:00:00Z,26.6493,-81.8810,1.0,-9999.0,1111122 
SCCF RECON,ioos:station:SCCF:53:1,2012-01-05T13:00:00Z,26.6493,-81.8810,1.0,-9999.0,1111122 
SCCF RECON,ioos:station:SCCF:53:1,2012-01-05T14:00:00Z,26.6493,-81.8810,1.0,-9999.0,1111122 
SCCF RECON,ioos:station:SCCF:53:1,2012-01-05T15:00:00Z,26.6493,-81.8810,1.0,-9999.0,1111122 
SCCF RECON,ioos:station:SCCF:53:1,2012-01-05T16:00:00Z,26.6493,-81.8810,1.0,-9999.0,1111122 
SCCF RECON,ioos:station:SCCF:53:1,2012-01-05T17:00:00Z,26.6493,-81.8810,1.0,-9999.0,1111122 
SCCF RECON,ioos:station:SCCF:53:1,2012-01-05T18:00:00Z,26.6493,-81.8810,1.0,-9999.0,1111122 
SCCF RECON,ioos:station:SCCF:53:1,2012-01-05T19:00:00Z,26.6493,-81.8810,1.0,-9999.0,1111122 
SCCF RECON,ioos:station:SCCF:53:1,2012-01-05T20:00:00Z,26.6493,-81.8810,1.0,-9999.0,1111122 
SCCF RECON,ioos:station:SCCF:53:1,2012-01-05T21:00:00Z,26.6493,-81.8810,1.0,-9999.0,1111122 
SCCF RECON,ioos:station:SCCF:53:1,2012-01-05T22:00:00Z,26.6493,-81.8810,1.0,-9999.0,1111122 
SCCF RECON,ioos:station:SCCF:53:1,2012-01-05T23:00:00Z,26.6493,-81.8810,1.0,-9999.0,1111122 
SCCF RECON,ioos:station:SCCF:53:1,2012-01-12T20:00:00Z,26.6493,-81.8810,2.29,16.61,1111122 
SCCF RECON,ioos:station:SCCF:53:1,2012-01-12T21:00:00Z,26.6493,-81.8810,2.342,17.6,1111122 
SCCF RECON,ioos:station:SCCF:53:1,2012-01-12T22:00:00Z,26.6493,-81.8810,2.4,16.31,1111122 
SCCF RECON,ioos:station:SCCF:53:1,2012-01-12T23:00:00Z,26.6493,-81.8810,2.43,15.13,1111122 
SCCF RECON,ioos:station:SCCF:53:1,2012-01-13T00:00:00Z,26.6493,-81.8810,2.42,15.08,1111122 
SCCF RECON,ioos:station:SCCF:53:1,2012-01-13T01:00:00Z,26.6493,-81.8810,2.362,15.04,1111122 
SCCF RECON,ioos:station:SCCF:53:1,2012-01-13T02:00:00Z,26.6493,-81.8810,2.32,14.83,1111122 
SCCF RECON,ioos:station:SCCF:53:1,2012-01-13T03:00:00Z,26.6493,-81.8810,2.267,14.53,1111122 
SCCF RECON,ioos:station:SCCF:53:1,2012-01-13T04:00:00Z,26.6493,-81.8810,2.224,14.34,1111122 
SCCF RECON,ioos:station:SCCF:53:1,2012-01-13T05:00:00Z,26.6493,-81.8810,2.2,14.13,1111122 
SCCF RECON,ioos:station:SCCF:53:1,2012-01-13T06:00:00Z,26.6493,-81.8810,2.25,15.35,1111122 
SCCF RECON,ioos:station:SCCF:53:1,2012-01-13T07:00:00Z,26.6493,-81.8810,2.317,15.63,1111122 
SCCF RECON,ioos:station:SCCF:53:1,2012-01-13T08:00:00Z,26.6493,-81.8810,2.36,16.26,1111122 
SCCF RECON,ioos:station:SCCF:53:1,2012-01-13T09:00:00Z,26.6493,-81.8810,2.43,18.39,1111122 
SCCF RECON,ioos:station:SCCF:53:1,2012-01-13T10:00:00Z,26.6493,-81.8810,2.49,17.7,1111122 
SCCF RECON,ioos:station:SCCF:53:1,2012-01-13T11:00:00Z,26.6493,-81.8810,2.51,16.63,1111122 
SCCF RECON,ioos:station:SCCF:53:1,2012-01-13T12:00:00Z,26.6493,-81.8810,2.47,15.34,1111122 
SCCF RECON,ioos:station:SCCF:53:1,2012-01-13T13:00:00Z,26.6493,-81.8810,2.41,15.01,1111122 
SCCF RECON,ioos:station:SCCF:53:1,2012-01-13T14:00:00Z,26.6493,-81.8810,2.36,14.65,1111122 
SCCF RECON,ioos:station:SCCF:53:1,2012-01-13T15:00:00Z,26.6493,-81.8810,2.313,14.59,1111122 
SCCF RECON,ioos:station:SCCF:53:1,2012-01-13T16:00:00Z,26.6493,-81.8810,2.25,14.55,1111122 
SCCF RECON,ioos:station:SCCF:53:1,2012-01-13T17:00:00Z,26.6493,-81.8810,2.19,15.03,1111122 
SCCF RECON,ioos:station:SCCF:53:1,2012-01-13T18:00:00Z,26.6493,-81.8810,2.149,17.57,1111122 
SCCF RECON,ioos:station:SCCF:53:1,2012-01-13T19:00:00Z,26.6493,-81.8810,2.148,17.42,1111122 
SCCF RECON,ioos:station:SCCF:53:1,2012-01-13T20:00:00Z,26.6493,-81.8810,2.205,18.87,1111122 
SCCF RECON,ioos:station:SCCF:53:1,2012-01-13T21:00:00Z,26.6493,-81.8810,2.25,18.38,1111122 
SCCF RECON,ioos:station:SCCF:53:1,2012-01-13T22:00:00Z,26.6493,-81.8810,2.3,19.42,1111122 
SCCF RECON,ioos:station:SCCF:53:1,2012-01-13T23:00:00Z,26.6493,-81.8810,2.349,19.18,1111122 
SCCF RECON,ioos:station:SCCF:53:1,2012-01-14T00:00:00Z,26.6493,-81.8810,2.35,18.65,1111122 
SCCF RECON,ioos:station:SCCF:53:1,2012-01-14T01:00:00Z,26.6493,-81.8810,2.3,15.36,1111122 
SCCF RECON,ioos:station:SCCF:53:1,2012-01-14T02:00:00Z,26.6493,-81.8810,2.26,15.42,1111122 
SCCF RECON,ioos:station:SCCF:53:1,2012-01-14T03:00:00Z,26.6493,-81.8810,2.224,15.92,1111122 
SCCF RECON,ioos:station:SCCF:53:1,2012-01-14T04:00:00Z,26.6493,-81.8810,2.178,17.11,1111122 
SCCF RECON,ioos:station:SCCF:53:1,2012-01-14T05:00:00Z,26.6493,-81.8810,2.14,18.02,1111122 
SCCF RECON,ioos:station:SCCF:53:1,2012-01-14T06:00:00Z,26.6493,-81.8810,2.1,18.3,1111122 
SCCF RECON,ioos:station:SCCF:53:1,2012-01-14T07:00:00Z,26.6493,-81.8810,2.09,18.55,1111122 
SCCF RECON,ioos:station:SCCF:53:1,2012-01-14T08:00:00Z,26.6493,-81.8810,2.12,17.83,1111122 
SCCF RECON,ioos:station:SCCF:53:1,2012-01-14T09:00:00Z,26.6493,-81.8810,2.16,17.93,1111122 
SCCF RECON,ioos:station:SCCF:53:1,2012-01-14T10:00:00Z,26.6493,-81.8810,2.2,17.62,1111122 
SCCF RECON,ioos:station:SCCF:53:1,2012-01-14T11:00:00Z,26.6493,-81.8810,2.23,17.12,1111122 
SCCF RECON,ioos:station:SCCF:53:1,2012-01-14T12:00:00Z,26.6493,-81.8810,2.221,18.52,1111122 
SCCF RECON,ioos:station:SCCF:53:1,2012-01-14T13:00:00Z,26.6493,-81.8810,2.182,14.16,1111122 
SCCF RECON,ioos:station:SCCF:53:1,2012-01-14T14:00:00Z,26.6493,-81.8810,2.15,15.06,1111122 
SCCF RECON,ioos:station:SCCF:53:1,2012-01-14T15:00:00Z,26.6493,-81.8810,2.11,14.04,1111122 
SCCF RECON,ioos:station:SCCF:53:1,2012-01-14T16:00:00Z,26.6493,-81.8810,2.068,14.08,1111122 
SCCF RECON,ioos:station:SCCF:53:1,2012-01-14T17:00:00Z,26.6493,-81.8810,2.021,13.05,1111122 
SCCF RECON,ioos:station:SCCF:53:1,2012-01-14T18:00:00Z,26.6493,-81.8810,1.983,12.83,1111122 
SCCF RECON,ioos:station:SCCF:53:1,2012-01-14T19:00:00Z,26.6493,-81.8810,1.96,12.84,1111122 
SCCF RECON,ioos:station:SCCF:53:1,2012-01-14T20:00:00Z,26.6493,-81.8810,2.01,12.97,1111122 
SCCF RECON,ioos:station:SCCF:53:1,2012-01-14T21:00:00Z,26.6493,-81.8810,2.05,13.34,1111122 
SCCF RECON,ioos:station:SCCF:53:1,2012-01-14T22:00:00Z,26.6493,-81.8810,2.101,14.15,1111122 
SCCF RECON,ioos:station:SCCF:53:1,2012-01-14T23:00:00Z,26.6493,-81.8810,2.15,14.49,1111122 
SCCF RECON,ioos:station:SCCF:53:1,2012-01-15T00:00:00Z,26.6493,-81.8810,2.19,14.38,1111122 
SCCF RECON,ioos:station:SCCF:53:1,2012-01-15T01:00:00Z,26.6493,-81.8810,2.22,14.61,1111122 
SCCF RECON,ioos:station:SCCF:53:1,2012-01-15T02:00:00Z,26.6493,-81.8810,2.2,15.06,1111122 
SCCF RECON,ioos:station:SCCF:53:1,2012-01-15T03:00:00Z,26.6493,-81.8810,2.16,14.16,1111122 
SCCF RECON,ioos:station:SCCF:53:1,2012-01-15T04:00:00Z,26.6493,-81.8810,2.13,13.76,1111122 
SCCF RECON,ioos:station:SCCF:53:1,2012-01-15T05:00:00Z,26.6493,-81.8810,2.09,13.36,1111122 
SCCF RECON,ioos:station:SCCF:53:1,2012-01-15T06:00:00Z,26.6493,-81.8810,2.05,12.9,1111122 
SCCF RECON,ioos:station:SCCF:53:1,2012-01-15T07:00:00Z,26.6493,-81.8810,2.03,12.88,1111122 
SCCF RECON,ioos:station:SCCF:53:1,2012-01-15T08:00:00Z,26.6493,-81.8810,2.02,14.06,1111122 
SCCF RECON,ioos:station:SCCF:53:1,2012-01-15T09:00:00Z,26.6493,-81.8810,2.05,14.12,1111122 
SCCF RECON,ioos:station:SCCF:53:1,2012-01-15T10:00:00Z,26.6493,-81.8810,2.09,14.28,1111122 
SCCF RECON,ioos:station:SCCF:53:1,2012-01-15T11:00:00Z,26.6493,-81.8810,2.12,14.37,1111122 
SCCF RECON,ioos:station:SCCF:53:1,2012-01-15T12:00:00Z,26.6493,-81.8810,2.163,14.49,1111122 
SCCF RECON,ioos:station:SCCF:53:1,2012-01-15T13:00:00Z,26.6493,-81.8810,2.19,14.69,1111122 
SCCF RECON,ioos:station:SCCF:53:1,2012-01-15T14:00:00Z,26.6493,-81.8810,2.18,14.6,1111122 
SCCF RECON,ioos:station:SCCF:53:1,2012-01-15T15:00:00Z,26.6493,-81.8810,2.149,14.52,1111122 
SCCF RECON,ioos:station:SCCF:53:1,2012-01-15T16:00:00Z,26.6493,-81.8810,2.11,14.58,1111122 
SCCF RECON,ioos:station:SCCF:53:1,2012-01-15T17:00:00Z,26.6493,-81.8810,2.06,13.85,1111122 
SCCF RECON,ioos:station:SCCF:53:1,2012-01-15T18:00:00Z,26.6493,-81.8810,2.011,13.52,1111122 
SCCF RECON,ioos:station:SCCF:53:1,2012-01-15T19:00:00Z,26.6493,-81.8810,1.977,13.78,1111122 
SCCF RECON,ioos:station:SCCF:53:1,2012-01-15T20:00:00Z,26.6493,-81.8810,1.98,13.31,1111122 
SCCF RECON,ioos:station:SCCF:53:1,2012-01-15T21:00:00Z,26.6493,-81.8810,2.038,13.88,1111122 
SCCF RECON,ioos:station:SCCF:53:1,2012-01-15T22:00:00Z,26.6493,-81.8810,2.09,14.0,1111122 
SCCF RECON,ioos:station:SCCF:53:1,2012-01-15T23:00:00Z,26.6493,-81.8810,2.14,14.31,1111122 
SCCF RECON,ioos:station:SCCF:53:1,2012-01-16T00:00:00Z,26.6493,-81.8810,2.21,14.64,1111122 
SCCF RECON,ioos:station:SCCF:53:1,2012-01-16T01:00:00Z,26.6493,-81.8810,2.26,14.88,1111122 
SCCF RECON,ioos:station:SCCF:53:1,2012-01-16T02:00:00Z,26.6493,-81.8810,2.28,15.16,1111122 
SCCF RECON,ioos:station:SCCF:53:1,2012-01-16T03:00:00Z,26.6493,-81.8810,2.278,15.29,1111122 
SCCF RECON,ioos:station:SCCF:53:1,2012-01-16T04:00:00Z,26.6493,-81.8810,2.24,14.76,1111122 
SCCF RECON,ioos:station:SCCF:53:1,2012-01-16T05:00:00Z,26.6493,-81.8810,2.199,14.93,1111122 
SCCF RECON,ioos:station:SCCF:53:1,2012-01-16T06:00:00Z,26.6493,-81.8810,2.15,14.54,1111122 
SCCF RECON,ioos:station:SCCF:53:1,2012-01-16T07:00:00Z,26.6493,-81.8810,2.106,14.84,1111122 
SCCF RECON,ioos:station:SCCF:53:1,2012-01-16T08:00:00Z,26.6493,-81.8810,2.06,13.47,1111122 
SCCF RECON,ioos:station:SCCF:53:1,2012-01-16T09:00:00Z,26.6493,-81.8810,2.03,12.67,1111122 
SCCF RECON,ioos:station:SCCF:53:1,2012-01-16T10:00:00Z,26.6493,-81.8810,2.01,12.92,1111122 
SCCF RECON,ioos:station:SCCF:53:1,2012-01-16T11:00:00Z,26.6493,-81.8810,2.01,13.24,1111122 
SCCF RECON,ioos:station:SCCF:53:1,2012-01-16T12:00:00Z,26.6493,-81.8810,2.03,13.35,1111122 
SCCF RECON,ioos:station:SCCF:53:1,2012-01-16T13:00:00Z,26.6493,-81.8810,2.07,13.25,1111122 
SCCF RECON,ioos:station:SCCF:53:1,2012-01-16T14:00:00Z,26.6493,-81.8810,2.1,13.82,1111122 
SCCF RECON,ioos:station:SCCF:53:1,2012-01-16T15:00:00Z,26.6493,-81.8810,2.113,13.89,1111122 
SCCF RECON,ioos:station:SCCF:53:1,2012-01-16T16:00:00Z,26.6493,-81.8810,2.1,14.03,1111122 
SCCF RECON,ioos:station:SCCF:53:1,2012-01-16T17:00:00Z,26.6493,-81.8810,2.05,14.07,1111122 
SCCF RECON,ioos:station:SCCF:53:1,2012-01-16T18:00:00Z,26.6493,-81.8810,2.019,13.08,1111122 
SCCF RECON,ioos:station:SCCF:53:1,2012-01-16T19:00:00Z,26.6493,-81.8810,2.01,13.26,1111122 
SCCF RECON,ioos:station:SCCF:53:1,2012-01-16T20:00:00Z,26.6493,-81.8810,2.008,13.4,1111122 
SCCF RECON,ioos:station:SCCF:53:1,2012-01-16T21:00:00Z,26.6493,-81.8810,2.05,13.05,1111122 
SCCF RECON,ioos:station:SCCF:53:1,2012-01-16T22:00:00Z,26.6493,-81.8810,2.1,13.38,1111122 
SCCF RECON,ioos:station:SCCF:53:1,2012-01-16T23:00:00Z,26.6493,-81.8810,2.15,13.69,1111122 
SCCF RECON,ioos:station:SCCF:53:1,2012-01-17T00:00:00Z,26.6493,-81.8810,2.213,14.17,1111122 
SCCF RECON,ioos:station:SCCF:53:1,2012-01-17T01:00:00Z,26.6493,-81.8810,2.276,15.35,1111122 
SCCF RECON,ioos:station:SCCF:53:1,2012-01-17T02:00:00Z,26.6493,-81.8810,2.32,15.59,1111122 
SCCF RECON,ioos:station:SCCF:53:1,2012-01-17T03:00:00Z,26.6493,-81.8810,2.32,15.74,1111122 
SCCF RECON,ioos:station:SCCF:53:1,2012-01-17T04:00:00Z,26.6493,-81.8810,2.28,15.33,1111122 
SCCF RECON,ioos:station:SCCF:53:1,2012-01-17T05:00:00Z,26.6493,-81.8810,2.23,14.69,1111122 
SCCF RECON,ioos:station:SCCF:53:1,2012-01-17T06:00:00Z,26.6493,-81.8810,2.18,15.7,1111122 
SCCF RECON,ioos:station:SCCF:53:1,2012-01-17T07:00:00Z,26.6493,-81.8810,2.125,15.76,1111122 
SCCF RECON,ioos:station:SCCF:53:1,2012-01-17T08:00:00Z,26.6493,-81.8810,2.081,15.81,1111122 
SCCF RECON,ioos:station:SCCF:53:1,2012-01-17T09:00:00Z,26.6493,-81.8810,2.04,16.0,1111122 
SCCF RECON,ioos:station:SCCF:53:1,2012-01-17T10:00:00Z,26.6493,-81.8810,2.005,16.02,1111122 
SCCF RECON,ioos:station:SCCF:53:1,2012-01-17T11:00:00Z,26.6493,-81.8810,2.0,15.8,1111122 
SCCF RECON,ioos:station:SCCF:53:1,2012-01-17T12:00:00Z,26.6493,-81.8810,2.04,15.88,1111122 
SCCF RECON,ioos:station:SCCF:53:1,2012-01-17T13:00:00Z,26.6493,-81.8810,2.08,15.71,1111122 
SCCF RECON,ioos:station:SCCF:53:1,2012-01-17T14:00:00Z,26.6493,-81.8810,2.12,15.36,1111122 
SCCF RECON,ioos:station:SCCF:53:1,2012-01-17T15:00:00Z,26.6493,-81.8810,2.161,15.58,1111122 
SCCF RECON,ioos:station:SCCF:53:1,2012-01-17T16:00:00Z,26.6493,-81.8810,2.197,14.89,1111122 
SCCF RECON,ioos:station:SCCF:53:1,2012-01-17T17:00:00Z,26.6493,-81.8810,2.21,15.24,1111122 
SCCF RECON,ioos:station:SCCF:53:1,2012-01-17T18:00:00Z,26.6493,-81.8810,2.22,15.76,1111122 
SCCF RECON,ioos:station:SCCF:53:1,2012-01-17T19:00:00Z,26.6493,-81.8810,2.213,15.71,1111122 
SCCF RECON,ioos:station:SCCF:53:1,2012-01-17T20:00:00Z,26.6493,-81.8810,2.208,15.31,1111122 
SCCF RECON,ioos:station:SCCF:53:1,2012-01-17T21:00:00Z,26.6493,-81.8810,2.213,15.06,1111122 
SCCF RECON,ioos:station:SCCF:53:1,2012-01-17T22:00:00Z,26.6493,-81.8810,2.261,15.01,1111122 
SCCF RECON,ioos:station:SCCF:53:1,2012-01-17T23:00:00Z,26.6493,-81.8810,2.31,14.76,1111122 
SCCF RECON,ioos:station:SCCF:53:1,2012-01-18T00:00:00Z,26.6493,-81.8810,2.36,15.36,1111122 
SCCF RECON,ioos:station:SCCF:53:1,2012-01-18T01:00:00Z,26.6493,-81.8810,2.413,15.61,1111122 
SCCF RECON,ioos:station:SCCF:53:1,2012-01-18T02:00:00Z,26.6493,-81.8810,2.44,15.82,1111122 
SCCF RECON,ioos:station:SCCF:53:1,2012-01-18T03:00:00Z,26.6493,-81.8810,2.45,16.05,1111122 
SCCF RECON,ioos:station:SCCF:53:1,2012-01-18T04:00:00Z,26.6493,-81.8810,2.43,15.75,1111122 
SCCF RECON,ioos:station:SCCF:53:1,2012-01-18T05:00:00Z,26.6493,-81.8810,2.38,15.7,1111122 
SCCF RECON,ioos:station:SCCF:53:1,2012-01-18T06:00:00Z,26.6493,-81.8810,2.321,15.62,1111122 
SCCF RECON,ioos:station:SCCF:53:1,2012-01-18T07:00:00Z,26.6493,-81.8810,2.26,15.63,1111122 
SCCF RECON,ioos:station:SCCF:53:1,2012-01-18T08:00:00Z,26.6493,-81.8810,2.2,15.6,1111122 
SCCF RECON,ioos:station:SCCF:53:1,2012-01-18T09:00:00Z,26.6493,-81.8810,2.149,15.94,1111122 
SCCF RECON,ioos:station:SCCF:53:1,2012-01-18T10:00:00Z,26.6493,-81.8810,2.09,16.16,1111122 
SCCF RECON,ioos:station:SCCF:53:1,2012-01-18T11:00:00Z,26.6493,-81.8810,2.05,16.32,1111122 
SCCF RECON,ioos:station:SCCF:53:1,2012-01-18T12:00:00Z,26.6493,-81.8810,2.03,16.04,1111122 
SCCF RECON,ioos:station:SCCF:53:1,2012-01-18T13:00:00Z,26.6493,-81.8810,2.051,16.06,1111122 